Regional Weather Roundup
Issued by NWS

Home | Current Version | Previous Version | Graphics & Text | Print | Product List | Glossary On
Versions: 1 2 3 4 5 6 7 8 9 10 11 12 13 14 15 16 17 18 19 20 21 22 23 24 25 26 27 28 29 30 31 32 33 34 35 36 37 38 39 40 41 42 43 44 45 46 47 48 49 50
000
ASUS45 KCYS 230510
RWRWY

WYOMING REGIONAL WEATHER ROUNDUP
NATIONAL WEATHER SERVICE CHEYENNE WY
1000 PM MST SUN JAN 22 2017

NOTE:  "FAIR" INDICATES FEW OR NO CLOUDS BELOW 12,000 FEET
WITH NO SIGNIFICANT WEATHER AND/OR OBSTRUCTIONS TO VISIBILITY.

WYZ001-230600-
YELLOWSTONE NATIONAL PARK

CITY           SKY/WX    TMP DP  RH WIND       PRES   REMARKS
LK YELLOWSTONE   N/A     17  16  95 CALM      29.67S
W YELLOWSTONE  NOT AVBL

$$
WYZ002>013-054>058-071-098>099-230600-
NORTHERN WYOMING

CITY           SKY/WX    TMP DP  RH WIND       PRES   REMARKS
JACKSON        CLOUDY    21  19  93 W14       29.72S WCI   8
CODY           FAIR      20  14  77 CALM      29.66F
GREYBULL       FAIR      10   6  84 NW5       29.70F WCI   2
WORLAND        FAIR      20  16  84 SE10      29.68F WCI   9
SHERIDAN       FAIR      20  16  84 SE7       29.68F WCI  11
BUFFALO        FAIR      24  12  60 CALM      29.65F
GILLETTE       FAIR      29  19  66 S15       29.68F WCI  18
HULETT         FAIR      27  18  69 MISG      29.73F
NEWCASTLE      FAIR      28  16  59 E6        29.78F WCI  22

$$
WYZ014>020-022>026-101>103-230600-
CENTRAL WYOMING

CITY           SKY/WX    TMP DP  RH WIND       PRES   REMARKS
BIG PINEY      LGT SNOW  16  14  92 N7        29.74F FOG     WCI   6
PINEDALE       LGT SNOW  18  18 100 CALM      29.75S
DUBOIS         NOT AVBL
LANDER         CLOUDY    21  14  74 W5        29.69F WCI  15
RIVERTON       FLURRIES  20  15  81 E5        29.71F WCI  13
CASPER         FLURRIES  32  20  61 SW30G41   29.71F WCI  18
DOUGLAS        FAIR      35  14  42 S6        29.73F WCI  30

$$
WYZ021-027>030-104>119-230600-
SOUTHERN WYOMING

CITY           SKY/WX    TMP DP  RH WIND       PRES   REMARKS
EVANSTON       HVY SNOW  20  15  81 E12       29.69S VSB 1/4 WCI   8
ROCK SPRINGS   CLOUDY    26  18  71 S16       29.72F WCI  14
RAWLINS        LGT SNOW  26  20  77 SE12      29.76F WCI  16
LARAMIE        CLOUDY    24  13  62 SE17      29.74F WCI  11
CHEYENNE       FAIR      29  12  49 S12       29.79F WCI  19
TORRINGTON     FAIR      25  15  66 SE6       29.81S WCI  18

$$



USA.gov is the U.S. government's official web portal to all federal, state and local government web resources and services.